EW7833 Weather Reports


Display with metric or nautical units.
time (UTC)temp
F
wind
direction
speed
MPH
gust
MPH
rain 1hr
in
rain 24hr
in
rain mn
in
humidity
%
barometer
mb
20260903220050 74 116 0.0 2.0 0.00 0.00 0.00 65 1011.6
20260903214557 75 110 0.0 4.0 0.00 0.00 0.00 61 1011.5
20260903213049 76 119 0.0 2.0 0.00 0.00 0.00 63 1011.4
20260903211551 76 103 0.0 1.0 0.00 0.00 0.00 63 1011.8
20260903210055 76 120 0.0 1.0 0.00 0.00 0.00 64 1012.1
20260903204553 76 133 0.0 2.0 0.00 0.00 0.00 68 1012.5
20260903203038 74 120 0.0 0.0 0.00 0.00 0.00 71 1012.6
20260903201538 74 155 0.0 0.0 0.00 0.00 0.00 71 1012.9
20260903200037 73 155 0.0 0.0 0.00 0.00 0.00 71 1013.1
20260903194538 74 155 0.0 0.0 0.00 0.00 0.00 72 1013.4
20260903193037 74 155 0.0 0.0 0.00 0.00 0.00 72 1013.9
20260903191536 72 155 0.0 0.0 0.00 0.00 0.00 73 1013.9
20260903190037 72 155 0.0 0.0 0.00 0.00 0.00 74 1014.3
20260903184535 73 155 0.0 0.0 0.00 0.00 0.00 69 1014.7
20260903183038 74 152 0.0 0.0 0.00 0.00 0.00 63 1014.8
20260903181534 73 125 0.0 0.0 0.00 0.00 0.00 64 1014.7
20260903180039 73 107 0.0 1.0 0.00 0.00 0.00 71 1014.3
20260903174530 72 106 0.0 0.0 0.00 0.00 0.00 68 1014.1
20260903173029 73 106 0.0 0.0 0.00 0.00 0.00 68 1013.8
20260903171529 73 102 0.0 1.0 0.00 0.00 0.00 68 1013.7
20260903170039 73 110 0.0 1.0 0.00 0.00 0.00 70 1013.7
20260903164528 73 109 0.0 1.0 0.00 0.00 0.00 68 1013.5
20260903163036 74 121 0.0 3.0 0.00 0.00 0.00 66 1013.6
20260903161528 74 112 0.0 2.0 0.00 0.00 0.00 65 1013.4
20260903160027 74 125 0.0 3.0 0.00 0.00 0.00 63 1013.4
20260903154525 75 116 0.0 2.0 0.00 0.00 0.00 63 1013.5
20260903153023 74 117 0.0 2.0 0.00 0.00 0.00 67 1013.6
20260903151520 73 113 0.0 1.0 0.00 0.00 0.00 68 1014.0
20260903150027 72 112 0.0 2.0 0.00 0.00 0.00 70 1014.0
20260903144516 72 118 0.0 3.0 0.00 0.00 0.00 71 1013.7
20260903143013 71 111 0.0 1.0 0.00 0.00 0.00 79 1013.7
20260903141514 70 226 0.0 0.0 0.00 0.00 0.00 92 1013.7
20260903140006 68 143 0.0 1.0 0.00 0.00 0.00 89 1013.8
20260903134502 66 143 0.0 0.0 0.00 0.01 0.00 85 1013.7
20260903133104 65 143 0.0 1.0 0.00 0.01 0.00 84 1013.9
20260903131607 63 154 0.0 0.0 0.00 0.01 0.00 85 1013.8
20260903130056 63 154 0.0 0.0 0.00 0.01 0.00 86 1014.0
20260903124606 62 219 0.0 0.0 0.00 0.01 0.00 86 1014.2
20260903123051 62 219 0.0 0.0 0.00 0.01 0.00 86 1014.1
20260903121550 62 219 0.0 0.0 0.00 0.01 0.00 86 1013.7
20260903120059 61 219 0.0 0.0 0.00 0.01 0.00 85 1013.9
20260903114548 61 219 0.0 0.0 0.00 0.01 0.00 85 1013.9
20260903113053 60 219 0.0 0.0 0.00 0.01 0.00 86 1013.7
20260903111545 59 219 0.0 0.0 0.00 0.01 0.00 88 1013.5
20260903110047 60 219 0.0 0.0 0.00 0.01 0.00 87 1013.5
20260903104547 60 238 0.0 0.0 0.00 0.01 0.00 87 1013.4
20260903103043 59 238 0.0 0.0 0.00 0.01 0.00 87 1013.3
20260903101549 59 238 0.0 0.0 0.00 0.01 0.00 87 1013.3
20260903100042 58 238 0.0 0.0 0.00 0.01 0.00 87 1013.2
20260903094557 58 238 0.0 0.0 0.00 0.01 0.00 89 1013.3
20260903093043 58 238 0.0 0.0 0.00 0.01 0.00 89 1013.4
20260903091542 58 238 0.0 0.0 0.00 0.01 0.00 89 1013.2
20260903090035 58 238 0.0 0.0 0.00 0.01 0.00 89 1013.1
20260903084536 59 238 0.0 0.0 0.00 0.01 0.00 89 1013.3
20260903083035 59 238 0.0 0.0 0.00 0.01 0.00 89 1013.2
20260903081533 59 238 0.0 0.0 0.00 0.01 0.00 88 1013.0
20260903080047 59 238 0.0 0.0 0.00 0.01 0.00 88 1013.1
20260903074529 58 238 0.0 0.0 0.00 0.01 0.00 90 1012.8
20260903073031 59 238 0.0 0.0 0.00 0.01 0.00 89 1012.8
20260903071527 59 238 0.0 0.0 0.00 0.01 0.00 90 1012.7
20260903070025 59 238 0.0 0.0 0.00 0.01 0.00 90 1012.5
20260903064524 59 238 0.0 0.0 0.00 0.01 0.00 89 1012.6
20260903063023 59 238 0.0 0.0 0.00 0.01 0.00 90 1012.6
20260903061522 59 238 0.0 0.0 0.00 0.01 0.00 90 1012.6
20260903060021 59 238 0.0 0.0 0.00 0.01 0.00 91 1012.6
20260903054519 60 238 0.0 0.0 0.00 0.01 0.00 91 1012.4
20260903053017 60 238 0.0 0.0 0.00 0.01 0.00 91 1012.3
20260903051516 60 238 0.0 0.0 0.00 0.01 0.00 91 1012.4
20260903050022 61 237 0.0 0.0 0.00 0.01 0.00 91 1012.4
20260903044521 61 238 0.0 0.0 0.00 0.01 0.00 91 1012.3
20260903043012 61 238 0.0 0.0 0.00 0.01 0.00 91 1012.3
20260903041513 62 238 0.0 0.0 0.00 0.01 0.00 91 1012.2
20260903040009 62 238 0.0 0.0 0.00 0.01 0.00 91 1012.1
20260903034506 62 238 0.0 0.0 0.00 0.01 0.01 91 1012.1
20260903033005 62 238 0.0 0.0 0.00 0.01 0.01 91 1012.1
20260903031505 62 238 0.0 0.0 0.00 0.01 0.01 91 1012.0
20260903030004 62 238 0.0 0.0 0.00 0.01 0.01 92 1012.0
20260903024503 63 238 0.0 0.0 0.00 0.01 0.01 92 1011.8
20260903023002 63 238 0.0 0.0 0.00 0.01 0.01 92 1011.8
20260903021601 63 237 0.0 0.0 0.00 0.01 0.01 92 1011.7
20260903020058 64 238 0.0 0.0 0.00 0.01 0.01 92 1011.7
20260903014557 64 238 0.0 0.0 0.00 0.01 0.01 92 1011.6
20260903013055 65 238 0.0 0.0 0.00 0.01 0.01 91 1011.5
20260903011553 66 238 0.0 0.0 0.00 0.01 0.01 91 1011.3
20260903010049 66 238 0.0 0.0 0.00 0.01 0.01 89 1011.2
20260903004554 68 238 0.0 0.0 0.00 0.01 0.01 87 1011.0
20260903003048 70 238 0.0 0.0 0.00 0.01 0.01 84 1011.0
20260903001601 71 251 1.0 2.0 0.00 0.01 0.01 84 1011.2
20260903000046 71 250 0.0 4.0 0.00 0.01 0.01 84 1011.2
20260902234546 72 255 2.0 5.0 0.00 0.01 0.01 83 1011.1
20260902233046 72 257 1.0 6.0 0.00 0.01 0.01 80 1011.0
20260902231544 73 255 1.0 5.0 0.00 0.01 0.01 79 1011.0
20260902230046 73 256 2.0 5.0 0.00 0.01 0.01 79 1011.0
20260902224642 74 252 2.0 6.0 0.00 0.01 0.01 75 1011.0
20260902223041 74 269 3.0 8.0 0.00 0.01 0.01 76 1011.1
20260902221547 75 246 4.0 7.0 0.00 0.01 0.01 74 1011.1